GORIZONT 30 [-]

Last updated on Tue Jun 27 2023 00:03:00 GMT+0000 (Coordinated Universal Time)

1 23108U 94030A 23176.98230620 -.00000279 00000+0 00000+0 0 9996 2 23108 14.4916 356.3789 0002989 151.4738 217.2770 1.00162376106592
UTC large
Height (km)
Speed (km/s)
/
Latitude / Longitude
Inclination (degrees)
Orbital Period (minutes)
Azimuth
Elevation
Range (km)
Doppler Factor

Next 0 passes for location: London (51.5072 / 0.1276)

Sorry there are no passes over London.